This is the latest recevied weather packets stored in our database for station/object K8MUD. If no packets are shown the sender has not sent any weather packets the latest 1 day(s).
| Time | Temp. | Humidity | Pressure | Rain* | Wind** | Luminosity | Snow |
|---|---|---|---|---|---|---|---|
| 1778060233 | 8.33° C | 70% | 1008.2 hPa | 0 mm | - | - | - |
| 1778059933 | 8.89° C | 71% | 1008.2 hPa | 0 mm | - | - | - |
| 1778059633 | 8.89° C | 70% | 1008.2 hPa | 0 mm | - | - | - |
| 1778059333 | 8.89° C | 69% | 1007.9 hPa | 0 mm | - | - | - |
| 1778059033 | 8.89° C | 69% | 1007.9 hPa | 0 mm | - | - | - |
| 1778058733 | 9.44° C | 67% | 1007.9 hPa | 0 mm | - | - | - |
| 1778056632 | 10° C | 60% | 1007.5 hPa | 0 mm | - | - | - |
| 1778056032 | 10° C | 58% | 1007.5 hPa | 0 mm | - | - | - |
| 1778055732 | 10° C | 58% | 1007.5 hPa | 0 mm | - | - | - |
| 1778055432 | 10° C | 59% | 1007.6 hPa | 0 mm | - | - | - |
| 1778055132 | 10° C | 59% | 1007.6 hPa | 0 mm | - | - | - |
| 1778054832 | 10.56° C | 59% | 1007.8 hPa | 0 mm | - | - | - |
| 1778053031 | 10° C | 59% | 1007.5 hPa | 0 mm | - | - | - |
| 1778052731 | 10° C | 60% | 1007.4 hPa | 0 mm | - | - | - |
| 1778052431 | 10° C | 60% | 1007.5 hPa | 0 mm | - | - | - |
| 1778052131 | 10° C | 61% | 1007.5 hPa | 0 mm | - | - | - |
| 1778051831 | 10° C | 63% | 1007.7 hPa | 0 mm | - | - | - |
| 1778051531 | 10° C | 68% | 1007.6 hPa | 0 mm | - | - | - |
| 1778051231 | 10° C | 70% | 1007.5 hPa | 0 mm | - | - | - |
| 1778050931 | 10° C | 71% | 1007.3 hPa | 0 mm | - | - | - |
| 1778050631 | 10° C | 71% | 1007.7 hPa | 0 mm | - | - | - |
| 1778050331 | 10° C | 71% | 1007.7 hPa | 0 mm | - | - | - |
| 1778050031 | 10° C | 71% | 1007.7 hPa | 0 mm | - | - | - |
| 1778047630 | 10° C | 69% | 1007.7 hPa | 0 mm | - | - | - |
| 1778047330 | 10° C | 68% | 1007.7 hPa | 0 mm | - | - | - |
* Rain latest hour (hover to see other rain measurements)
** Current wind speed in m/s (hover to see current wind gust speed)